THORAD DELTA 1 DEB, 8152

Orbit data source: Space-Track

THORAD DELTA 1 DEB, 8152 is space debris in SSO originally from a launch on Fri, 15 Nov 1974 UTC launched from the Air Force Western Test Range (AFWTR). Debris objects in space refer to the collection of defunct objects orbiting the Earth. Examples of debris include non-operational satellites, rocket bodies, and fragments generated from explosions, collisions, or faulty payload assembly.

Loading next visibility...
Identifier
8152, 1974-089S
Orbit
SSO
Country
Flag of USUS
Related business
Manufacturer
Unknown
Mission
Spacecraft
Bus & Motor
Unknown
Mass
Unknown
Launch date (UTC)
1974-11-15 (51 years ago)
Launch vehicle
Unknown
Launch site
Air Force Western Test Range (AFWTR)
Object type
Payload
Rocket body
Debris
Shape & HBR
Unknown shape, 0.1 m
Radar Cross Section
Small (<0.1 m²)

Expand to show TLE details & history
Last TLE update: 16 hours ago

TLE from 16 hours ago
0 THORAD DELTA 1 DEB
1 08152U 74089S   25345.00640470  .00000038  00000-0  48018-3 0  9999
2 08152 101.8498 346.6438 0059791 358.4621  23.5024 12.60116884346986
Epoch: 2025-12-11T00:09Z
TLE epoch observation values (Epoch: 2025-12-11T00:09:13.366Z)
Latitude
21.75521°
Longitude
-100.40964°
Altitude
1,382.088 km
Speed
7.19 km/s
True Right ascension
22h 47m 27s
True Declination
21° 38' 48"
Sunlit
Object was in daylight at epoch
Visualization orbit readout
Latitude
Unknown
Longitude
Unknown
Altitude
Unknown
Speed
Unknown
Apparent Right ascension
Unknown
Apparent Declination
Unknown
Sunlit
N/A
Visualization observer readout
Local Sidereal Time
14:03:28
Azimuth
Unknown
Elevation
Unknown
Doppler factor
Unknown
Orbital elements
Apogee altitude
1,466.627 km
Perigee altitude
1,373.376 km
Semi-major axis
7,798.138 km
Eccentricity
0.00598
Inclination
101.8498°
RAAN
346.6438°
Arg. of periapsis
358.4621°
True anomaly
23.77752°
Mean anomaly
23.5024°
Eccentric anomaly
23.63977°
Mean motion
3.15179 °/min
Orbital period
114.22 mins
BSTAR
0.00048018
Loading maneuver chart data...
Computing Atmospheric mass density...

Documentation

Showing up to 5 results
|